Vertical_Velocity
-1 -0 0 -0 0 0 0 0 0 0 -0 -0 1 -0 -0 -1 -1 -2 -4 -1 -3 -1 -0 -2 -1 3 -1 -2 -2 0 2 -2 -2 -0 1 1 1 1 1 -1 -2 -3 -3 -1 -3
-0 -0 0 0 -1 -1 0 1 1 0 0 1 -0 1 0 -1 -1 -5 -1 -1 -6 -3 -3 -3 2 1 0 -4 -2 0 0 -3 0 -0 1 2 -0 -0 1 -0 -2 -6 -2 -0 -1
-0 -0 0 1 0 0 1 0 -0 -1 -0 0 1 1 1 -1 -2 1 -2 0 -1 -2 -1 0 -1 -2 -1 -2 1 -1 2 0 -2 -0 0 -1 -0 -0 -0 -1 -3 -4 -2 -1 -0
1 -1 0 0 -1 -0 0 -0 -1 -0 0 -0 1 2 -0 -0 -1 -2 -0 -0 -0 -6 2 -2 1 -3 -3 0 0 -3 1 -3 -1 0 0 -0 -3 0 -1 -0 0 -2 -2 -3 -2
0 1 0 1 -0 -0 -0 0 -1 -1 -0 -1 1 1 1 -0 -1 1 0 1 -1 -1 -1 -3 0 1 0 -1 -3 -3 1 -1 -1 -1 -2 -2 -2 1 1 2 0 -0 0 -2 -4
1 1 0 -0 0 0 1 1 0 -1 0 1 1 1 2 -1 2 -0 0 -0 -3 -2 5 -2 -1 0 1 1 -1 1 0 0 1 -1 -2 -2 -2 0 1 -2 -3 -3 1 -2 -1
0 1 0 -0 -0 -0 1 1 0 -0 -1 0 1 1 1 -6 -1 0 1 1 0 -1 -0 -3 2 3 -2 -1 1 -1 -1 -0 0 -2 -5 -2 1 -4 0 0 1 -1 -2 -1 2
-0 0 1 0 -1 -0 0 1 1 -0 -1 -0 0 1 -3 7 1 0 -1 1 -2 -3 -0 -0 1 3 -0 1 -2 -0 -2 -2 2 -1 -3 -0 0 -3 -2 -2 -2 -4 -3 0 -2
0 0 0 0 -0 -1 -1 1 -0 -1 -0 1 1 3 2 -1 -3 -2 -1 1 -2 -3 1 3 4 2 1 -0 2 -1 -3 -2 -0 3 1 2 -0 -1 -2 1 -0 -1 0 -2 -0
1 0 0 1 0 0 -1 0 0 0 1 0 -0 -1 2 0 -0 3 -1 -1 -0 -0 -1 2 2 4 2 -3 2 1 -1 -1 -3 1 2 5 -1 -1 -4 -2 -0 -1 -3 -2 0
0 -1 -0 0 1 -1 -1 1 2 3 2 -3 -1 1 0 -2 1 2 1 1 1 0 -3 -0 -1 2 2 -3 2 3 -1 -6 -2 -5 -0 1 -2 2 -3 -1 3 2 -3 -2 -4
-1 -0 -0 -0 -2 -2 2 3 1 -1 -1 1 2 2 0 -2 0 -1 0 3 2 -1 -2 1 -0 3 -0 1 -1 -3 -2 2 0 -4 -2 2 0 -2 -2 -0 -0 -1 4 0 0
-1 -1 -1 -1 -1 2 2 1 0 -0 0 2 1 1 1 1 -3 3 0 5 2 0 0 -2 9 1 3 1 1 1 2 5 1 -7 -7 -4 -3 2 -0 1 0 1 -1 4 0
-0 -1 -2 -0 3 1 1 -1 0 -2 0 1 -1 -2 3 -0 -1 -1 2 -0 -0 2 5 1 5 -2 -9 -1 2 0 5 2 1 -1 -3 -6 -6 -2 0 1 2 1 1 1 -0
0 0 -1 0 2 2 1 -0 -1 3 2 -1 2 4 2 2 1 3 -0 0 1 4 2 5 2 -5 0 7 3 3 -11 2 -2 -2 -3 1 -11 -3 1 -1 0 4 -3 -0 2
1 0 0 0 1 2 1 0 1 0 -1 -0 1 2 3 0 1 -1 2 -0 0 -2 2 4 -1 2 3 1 -4 -1 -2 1 1 -4 -4 -1 -3 -5 -0 -5 -4 4 3 1 3
1 1 1 1 2 2 1 1 1 0 -2 -3 -3 1 0 1 0 1 2 -0 -1 -1 -3 3 1 2 2 5 3 15 3 -1 -1 -2 4 8 5 -14 -4 -5 -6 1 3 3 1
2 1 2 1 2 1 1 1 1 -0 2 0 2 1 1 0 -1 -1 0 -4 -2 -1 -0 -1 5 0 5 2 7 -32 17 2 -5 -2 2 1 -0 -0 -2 -13 -1 3 -0 3 5
0 0 3 1 0 1 1 2 -1 4 2 1 1 1 0 -2 -3 -3 -1 2 -0 -0 -1 -1 1 -3 2 1 5 -3 -6 3 -1 1 3 6 -2 -3 -4 -8 2 2 4 2 2
0 -0 3 -2 -1 -0 0 2 3 3 1 -1 -1 -1 -5 -4 -3 -2 -1 -1 3 4 4 -4 5 6 3 5 5 -1 -2 -0 -2 -4 -1 -2 -0 0 -4 -8 -5 -0 1 1 -1
-1 0 -0 -1 -1 -1 4 7 5 -3 -3 -2 0 1 -2 -4 -3 -2 -1 1 -1 -2 -5 1 11 9 2 0 0 -4 1 4 -3 -1 -4 -5 -1 2 -2 -4 -5 -1 -0 6 -2
-1 1 -0 2 1 3 4 0 -7 -2 -0 -2 1 1 1 -2 -1 -1 1 1 2 2 -2 1 4 1 2 -2 -7 -2 1 -2 -2 -1 -1 -1 -1 -1 -3 -2 -1 1 1 -1 -5
-1 -1 4 0 -0 3 2 -1 6 -2 -1 -0 -1 -0 -1 -1 -0 2 1 -0 -3 -0 -3 3 3 -1 -3 -6 -7 -3 1 -1 -2 0 -2 -6 -5 2 2 1 2 -2 -2 1 -4
-1 -2 5 -1 1 2 -2 -3 4 -7 -3 -2 -2 -0 -1 0 1 2 0 1 -0 -2 2 5 -1 -2 -7 9 0 -3 1 2 4 1 1 -3 -1 0 -1 -3 4 1 2 0 -5
1 1 1 -4 2 -0 -1 3 -4 -1 -7 3 3 -2 -2 1 2 1 2 3 -1 -2 -2 -9 -6 -2 0 -5 -4 2 -2 1 1 3 -3 2 3 0 -1 0 5 1 2 -1 -2
-0 1 1 -0 1 1 5 -3 -8 1 -2 1 4 2 -2 -1 4 6 5 0 -1 6 14 -7 -8 -4 -7 -2 3 -1 0 3 -3 0 0 1 2 1 -1 -5 3 2 -2 3 -5
1 0 -0 -1 1 1 2 -5 1 2 2 -2 -1 0 -2 -4 -3 3 -1 0 5 -7 -6 -3 -1 -2 1 -1 -2 -3 1 0 -2 1 2 6 3 1 -2 -0 -0 -0 0 1 -3
Height
5867 5869 5870 5872 5874 5876 5877 5878 5880 5880 5882 5882 5883 5884 5884 5883 5886 5886 5887 5889 5890 5892 5893 5894 5899 5901 5902 5904 5904 5904 5904 5903 5900 5899 5900 5901 5900 5899 5897 5894 5894 5895 5895 5895 5896
5864 5866 5868 5870 5872 5874 5875 5877 5878 5879 5880 5881 5882 5883 5882 5883 5883 5883 5886 5887 5887 5889 5891 5894 5898 5902 5903 5903 5904 5905 5903 5902 5901 5901 5901 5902 5901 5900 5898 5895 5896 5896 5896 5896 5895
5862 5863 5865 5867 5869 5871 5873 5875 5876 5878 5879 5880 5881 5881 5881 5881 5881 5883 5884 5887 5889 5889 5892 5895 5897 5902 5904 5905 5905 5905 5904 5903 5903 5902 5901 5902 5902 5901 5900 5899 5898 5897 5897 5897 5894
5858 5860 5862 5864 5866 5868 5870 5872 5874 5875 5877 5878 5879 5880 5880 5880 5881 5882 5883 5886 5888 5889 5894 5895 5898 5901 5902 5904 5904 5904 5904 5904 5904 5904 5903 5902 5903 5902 5901 5900 5899 5898 5897 5897 5895
5855 5856 5858 5860 5862 5865 5867 5869 5871 5872 5874 5876 5877 5878 5879 5879 5880 5881 5883 5886 5888 5891 5895 5896 5900 5902 5903 5905 5904 5904 5905 5905 5905 5904 5903 5902 5902 5902 5902 5901 5901 5899 5899 5896 5897
5850 5852 5854 5856 5859 5861 5863 5866 5868 5870 5872 5873 5875 5876 5877 5878 5880 5880 5883 5885 5888 5891 5893 5897 5901 5903 5905 5906 5906 5905 5905 5905 5906 5906 5905 5904 5902 5902 5901 5901 5901 5900 5900 5898 5898
5846 5848 5850 5853 5855 5857 5860 5862 5864 5866 5868 5870 5872 5874 5875 5875 5877 5878 5881 5884 5887 5889 5893 5898 5902 5904 5905 5907 5909 5907 5906 5906 5907 5906 5906 5905 5905 5903 5903 5903 5902 5902 5901 5899 5899
5842 5844 5846 5849 5851 5854 5856 5858 5860 5863 5865 5867 5869 5871 5872 5874 5875 5876 5879 5883 5886 5889 5894 5899 5902 5904 5904 5907 5908 5909 5909 5907 5908 5907 5909 5909 5907 5905 5905 5904 5904 5902 5901 5900 5899
5838 5840 5843 5845 5848 5850 5852 5855 5857 5859 5861 5863 5866 5869 5871 5871 5873 5875 5878 5881 5884 5889 5894 5898 5901 5903 5904 5907 5908 5908 5909 5909 5911 5911 5912 5911 5910 5908 5907 5908 5907 5904 5902 5900 5899
5833 5836 5839 5841 5844 5846 5849 5851 5854 5855 5857 5859 5863 5867 5869 5868 5870 5873 5875 5877 5882 5887 5891 5897 5900 5902 5902 5907 5907 5908 5909 5910 5911 5912 5913 5913 5912 5911 5910 5910 5909 5906 5903 5901 5899
5829 5832 5835 5838 5840 5843 5845 5848 5852 5855 5855 5857 5859 5862 5864 5865 5868 5871 5873 5875 5879 5884 5888 5894 5898 5901 5902 5905 5907 5908 5908 5910 5912 5912 5913 5913 5913 5912 5911 5911 5911 5909 5906 5904 5902
5824 5827 5830 5833 5836 5839 5842 5846 5848 5850 5852 5854 5856 5860 5862 5863 5866 5868 5872 5874 5876 5881 5885 5892 5897 5899 5902 5904 5907 5909 5909 5911 5911 5912 5914 5915 5913 5913 5912 5913 5912 5911 5910 5907 5905
5819 5823 5826 5829 5832 5836 5839 5841 5843 5846 5848 5852 5854 5857 5860 5863 5863 5867 5869 5872 5874 5878 5884 5890 5897 5898 5900 5904 5906 5909 5910 5911 5911 5911 5913 5914 5913 5913 5913 5913 5912 5911 5910 5910 5907
5814 5818 5821 5825 5830 5831 5835 5837 5840 5841 5845 5849 5850 5854 5858 5859 5860 5863 5865 5868 5871 5877 5882 5889 5893 5894 5896 5902 5905 5907 5909 5909 5911 5912 5912 5913 5913 5912 5913 5913 5913 5911 5909 5908 5907
5810 5813 5817 5821 5824 5827 5831 5833 5836 5839 5842 5846 5848 5851 5854 5857 5858 5860 5861 5863 5868 5874 5879 5886 5889 5891 5897 5902 5904 5907 5905 5908 5909 5910 5910 5911 5912 5912 5912 5912 5912 5912 5909 5908 5906
5805 5809 5812 5816 5820 5823 5826 5829 5833 5838 5839 5842 5844 5847 5850 5853 5855 5855 5857 5860 5864 5869 5875 5883 5886 5890 5897 5900 5902 5905 5906 5907 5907 5907 5908 5909 5910 5909 5910 5910 5910 5910 5909 5908 5905
5801 5805 5809 5813 5817 5819 5823 5827 5831 5833 5836 5838 5840 5843 5846 5849 5851 5853 5855 5857 5860 5865 5871 5879 5885 5891 5896 5897 5895 5900 5903 5905 5907 5906 5907 5908 5907 5908 5909 5909 5909 5908 5908 5906 5904
5798 5802 5806 5810 5813 5816 5819 5824 5827 5829 5831 5834 5838 5840 5844 5846 5848 5850 5852 5854 5858 5864 5871 5877 5885 5889 5895 5896 5895 5892 5899 5902 5904 5905 5905 5904 5905 5907 5908 5908 5909 5907 5907 5904 5900
5795 5799 5803 5806 5810 5813 5818 5821 5823 5826 5828 5831 5834 5837 5841 5844 5846 5848 5851 5854 5857 5863 5870 5876 5882 5887 5892 5893 5895 5896 5898 5902 5901 5902 5902 5903 5903 5905 5905 5907 5907 5906 5904 5901 5896
5792 5795 5799 5802 5806 5810 5815 5818 5820 5823 5826 5828 5832 5836 5838 5842 5845 5847 5850 5854 5858 5863 5870 5876 5882 5886 5889 5891 5892 5894 5897 5898 5898 5899 5899 5899 5900 5901 5901 5902 5904 5904 5901 5896 5891
5788 5792 5795 5798 5802 5806 5811 5815 5816 5818 5822 5826 5830 5834 5836 5839 5842 5845 5849 5853 5857 5861 5866 5873 5880 5885 5886 5888 5889 5890 5891 5895 5895 5896 5896 5896 5897 5897 5896 5897 5899 5899 5897 5892 5887
5784 5788 5791 5795 5800 5803 5807 5809 5810 5813 5818 5823 5828 5831 5834 5837 5841 5845 5848 5851 5855 5860 5865 5872 5878 5881 5884 5885 5886 5888 5890 5892 5892 5893 5892 5892 5892 5892 5892 5892 5893 5893 5891 5888 5882
5780 5783 5787 5790 5794 5798 5802 5805 5808 5812 5817 5822 5825 5830 5833 5836 5842 5846 5848 5851 5853 5860 5866 5871 5876 5879 5882 5884 5885 5886 5887 5888 5888 5889 5888 5888 5888 5888 5888 5888 5887 5886 5884 5882 5878
5777 5779 5782 5785 5789 5793 5798 5802 5806 5809 5815 5819 5823 5827 5831 5835 5840 5844 5847 5850 5854 5858 5865 5869 5873 5877 5880 5882 5882 5882 5883 5884 5885 5884 5884 5884 5885 5885 5884 5884 5882 5880 5879 5877 5874
5772 5774 5778 5781 5785 5788 5793 5797 5802 5807 5812 5817 5821 5824 5827 5832 5837 5842 5846 5850 5854 5858 5861 5864 5868 5873 5876 5877 5877 5879 5880 5880 5880 5880 5879 5880 5880 5880 5880 5880 5877 5876 5874 5872 5870
5766 5769 5772 5775 5779 5784 5789 5792 5798 5804 5809 5816 5819 5822 5825 5831 5836 5841 5844 5848 5852 5855 5859 5861 5865 5869 5871 5874 5874 5873 5874 5874 5874 5874 5875 5874 5874 5875 5874 5874 5871 5869 5868 5865 5865
5762 5764 5767 5771 5775 5780 5784 5789 5794 5798 5805 5811 5816 5819 5822 5828 5833 5837 5842 5846 5851 5853 5856 5859 5862 5865 5867 5869 5869 5869 5869 5869 5869 5869 5870 5870 5870 5869 5868 5868 5866 5863 5861 5859 5858